• în România
  • Lista ţărilor
  • Pe 7 zile
  • Temperatura apei
  • Hartă satelitară
  • Meteo pe hartă
  • Widget-uri
  • user-avatar
    Intrare

    Meteo pe oră la Eisenstadt

    Astăzi, 21 Iulie, Sâmbătă

    Timp Temperatura Precipitaţii Vânt Presiune Umiditate
    00:00 +19°C° 0,1 mm 1 m/s 721 mmHg 78%
    01:00 +19°C° 0,1 mm 1 m/s 721 mmHg 80%
    02:00 +17°C° 0,1 mm 0 m/s 721 mmHg 81%
    03:00 +16°C° 0,1 mm 0 m/s 720 mmHg 83%
    04:00 +16°C° 0,1 mm 0 m/s 720 mmHg 84%
    05:00 +17°C° 0,1 mm 0 m/s 720 mmHg 80%
    06:00 +21°C° 0,1 mm 1 m/s 720 mmHg 76%
    07:00 +22°C° 0,1 mm 1 m/s 720 mmHg 72%
    08:00 +23°C° 0,1 mm 1 m/s 720 mmHg 69%
    09:00 +25°C° 0,1 mm 2 m/s 720 mmHg 65%
    10:00 +26°C° 0,1 mm 2 m/s 720 mmHg 62%
    11:00 +26°C° 0,4 mm 2 m/s 720 mmHg 63%
    12:00 +26°C° 0,4 mm 2 m/s 720 mmHg 63%
    13:00 +26°C° 0,4 mm 2 m/s 720 mmHg 64%
    14:00 +26°C° 0,9 mm 2 m/s 719 mmHg 64%
    15:00 +27°C° 0,9 mm 2 m/s 719 mmHg 64%
    16:00 +27°C° 0,9 mm 2 m/s 719 mmHg 64%
    17:00 +26°C° 0,5 mm 2 m/s 719 mmHg 68%
    18:00 +25°C° 0,5 mm 1 m/s 718 mmHg 71%
    19:00 +24°C° 0,5 mm 1 m/s 718 mmHg 75%
    20:00 +23°C° 1,6 mm 1 m/s 718 mmHg 79%
    21:00 +21°C° 1,6 mm 1 m/s 718 mmHg 84%
    22:00 +20°C° 1,6 mm 1 m/s 718 mmHg 88%
    23:00 +20°C° 0,7 mm 1 m/s 718 mmHg 90%

    Mâine, 22 Iulie, Duminică

    Timp Temperatura Precipitaţii Vânt Presiune Umiditate
    00:00 +19°C° 0,7 mm 1 m/s 718 mmHg 91%
    01:00 +19°C° 0,7 mm 1 m/s 718 mmHg 92%
    02:00 +18°C° 0,3 mm 2 m/s 718 mmHg 92%
    03:00 +18°C° 0,3 mm 2 m/s 718 mmHg 92%
    04:00 +17°C° 0,3 mm 2 m/s 718 mmHg 92%
    05:00 +18°C° 0,1 mm 2 m/s 718 mmHg 89%
    06:00 +19°C° 0,1 mm 3 m/s 719 mmHg 86%
    07:00 +20°C° 0,1 mm 3 m/s 719 mmHg 84%
    08:00 +21°C° 0,4 mm 3 m/s 719 mmHg 80%
    09:00 +22°C° 0,4 mm 3 m/s 719 mmHg 75%
    10:00 +24°C° 0,4 mm 3 m/s 719 mmHg 71%
    11:00 +25°C° 0,9 mm 3 m/s 719 mmHg 70%
    12:00 +25°C° 0,9 mm 3 m/s 719 mmHg 69%
    13:00 +26°C° 0,9 mm 3 m/s 719 mmHg 67%
    14:00 +26°C° 0,8 mm 3 m/s 719 mmHg 68%
    15:00 +26°C° 0,8 mm 3 m/s 718 mmHg 68%
    16:00 +26°C° 0,8 mm 3 m/s 718 mmHg 68%
    17:00 +25°C° 0,6 mm 3 m/s 718 mmHg 72%
    18:00 +23°C° 0,6 mm 2 m/s 718 mmHg 76%
    19:00 +21°C° 0,6 mm 2 m/s 718 mmHg 81%
    20:00 +20°C° 0,3 mm 2 m/s 718 mmHg 83%
    21:00 +19°C° 0,3 mm 2 m/s 718 mmHg 85%
    22:00 +19°C° 0,3 mm 2 m/s 719 mmHg 87%
    23:00 +18°C° 0,1 mm 2 m/s 718 mmHg 87%

    Poimâine, 23 Iulie, Luni

    Timp Temperatura Precipitaţii Vânt Presiune Umiditate
    00:00 +18°C° 0,1 mm 3 m/s 718 mmHg 87%
    01:00 +17°C° 0,1 mm 3 m/s 718 mmHg 87%
    02:00 +17°C° 0,3 mm 3 m/s 718 mmHg 88%
    03:00 +17°C° 0,3 mm 3 m/s 718 mmHg 88%
    04:00 +17°C° 0,3 mm 3 m/s 718 mmHg 88%
    05:00 +18°C° 0,6 mm 3 m/s 718 mmHg 87%
    06:00 +18°C° 0,6 mm 3 m/s 718 mmHg 87%
    07:00 +19°C° 0,6 mm 4 m/s 719 mmHg 86%
    08:00 +20°C° 0,4 mm 4 m/s 719 mmHg 82%
    09:00 +21°C° 0,4 mm 4 m/s 719 mmHg 78%
    10:00 +22°C° 0,4 mm 4 m/s 719 mmHg 74%
    11:00 +23°C° 0,1 mm 5 m/s 719 mmHg 66%
    12:00 +26°C° 0,1 mm 5 m/s 719 mmHg 58%
    13:00 +27°C° 0,1 mm 5 m/s 718 mmHg 50%
    14:00 +27°C° 0 mm 5 m/s 719 mmHg 49%
    15:00 +28°C° 0 mm 6 m/s 719 mmHg 48%
    16:00 +28°C° 0 mm 6 m/s 719 mmHg 47%
    17:00 +27°C° 0 mm 5 m/s 719 mmHg 53%
    18:00 +25°C° 0 mm 4 m/s 719 mmHg 58%
    19:00 +23°C° 0 mm 4 m/s 719 mmHg 64%
    20:00 +22°C° 0 mm 4 m/s 719 mmHg 67%
    21:00 +21°C° 0 mm 4 m/s 720 mmHg 70%
    22:00 +20°C° 0 mm 4 m/s 720 mmHg 74%
    23:00 +19°C° 0 mm 4 m/s 720 mmHg 75%

    24 Iulie, Marţi

    Timp Temperatura Precipitaţii Vânt Presiune Umiditate
    00:00 +19°C° 0 mm 3 m/s 720 mmHg 77%
    01:00 +18°C° 0 mm 3 m/s 720 mmHg 79%
    02:00 +18°C° 0 mm 3 m/s 720 mmHg 79%
    03:00 +18°C° 0 mm 3 m/s 720 mmHg 80%
    04:00 +18°C° 0 mm 3 m/s 720 mmHg 81%
    05:00 +19°C° 0 mm 4 m/s 721 mmHg 76%
    06:00 +20°C° 0 mm 4 m/s 721 mmHg 72%
    07:00 +21°C° 0 mm 4 m/s 721 mmHg 67%
    08:00 +23°C° 0 mm 4 m/s 721 mmHg 61%
    09:00 +25°C° 0 mm 4 m/s 721 mmHg 54%
    10:00 +27°C° 0 mm 4 m/s 721 mmHg 48%
    11:00 +28°C° 0,1 mm 4 m/s 721 mmHg 47%
    12:00 +28°C° 0,1 mm 4 m/s 721 mmHg 46%
    13:00 +29°C° 0,1 mm 4 m/s 720 mmHg 45%
    14:00 +29°C° 0,4 mm 4 m/s 720 mmHg 48%
    15:00 +28°C° 0,4 mm 3 m/s 720 mmHg 51%
    16:00 +28°C° 0,4 mm 3 m/s 720 mmHg 54%
    17:00 +27°C° 0,3 mm 3 m/s 720 mmHg 59%
    18:00 +25°C° 0,3 mm 3 m/s 719 mmHg 64%
    19:00 +24°C° 0,3 mm 2 m/s 719 mmHg 69%
    20:00 +23°C° 0,1 mm 2 m/s 720 mmHg 73%
    21:00 +21°C° 0,1 mm 2 m/s 720 mmHg 77%
    22:00 +19°C° 0,1 mm 2 m/s 720 mmHg 80%
    23:00 +19°C° 0 mm 2 m/s 720 mmHg 82%

    25 Iulie, Miercuri

    Timp Temperatura Precipitaţii Vânt Presiune Umiditate
    00:00 +18°C° 0 mm 2 m/s 720 mmHg 84%
    01:00 +18°C° 0 mm 2 m/s 720 mmHg 86%
    02:00 +18°C° 0 mm 2 m/s 720 mmHg 86%
    03:00 +17°C° 0 mm 2 m/s 720 mmHg 87%
    04:00 +17°C° 0 mm 2 m/s 720 mmHg 88%
    05:00 +18°C° 0 mm 3 m/s 720 mmHg 83%
    06:00 +19°C° 0 mm 3 m/s 720 mmHg 79%
    07:00 +21°C° 0 mm 3 m/s 721 mmHg 74%
    08:00 +22°C° 0,1 mm 4 m/s 721 mmHg 68%
    09:00 +23°C° 0,1 mm 4 m/s 721 mmHg 61%
    10:00 +26°C° 0,1 mm 4 m/s 721 mmHg 55%
    11:00 +26°C° 0 mm 4 m/s 721 mmHg 51%
    12:00 +27°C° 0 mm 4 m/s 721 mmHg 47%
    13:00 +28°C° 0 mm 4 m/s 720 mmHg 43%
    14:00 +28°C° 0 mm 4 m/s 720 mmHg 43%
    15:00 +28°C° 0 mm 4 m/s 720 mmHg 44%
    16:00 +28°C° 0 mm 4 m/s 720 mmHg 45%
    17:00 +27°C° 0 mm 3 m/s 720 mmHg 51%
    18:00 +25°C° 0 mm 3 m/s 720 mmHg 57%
    19:00 +24°C° 0 mm 2 m/s 720 mmHg 63%
    20:00 +23°C° 0 mm 2 m/s 720 mmHg 66%
    21:00 +21°C° 0 mm 2 m/s 720 mmHg 69%
    22:00 +19°C° 0 mm 2 m/s 721 mmHg 72%
    23:00 +19°C° 0 mm 2 m/s 721 mmHg 74%

    26 Iulie, Joi

    Timp Temperatura Precipitaţii Vânt Presiune Umiditate
    00:00 +19°C° 0 mm 2 m/s 721 mmHg 75%
    01:00 +18°C° 0 mm 2 m/s 721 mmHg 77%
    02:00 +18°C° 0 mm 3 m/s 721 mmHg 77%
    03:00 +18°C° 0 mm 3 m/s 721 mmHg 77%
    04:00 +17°C° 0 mm 3 m/s 721 mmHg 77%
    05:00 +19°C° 0 mm 3 m/s 721 mmHg 73%
    06:00 +20°C° 0 mm 4 m/s 721 mmHg 69%
    07:00 +22°C° 0 mm 4 m/s 722 mmHg 64%
    08:00 +23°C° 0 mm 4 m/s 722 mmHg 59%
    09:00 +26°C° 0 mm 5 m/s 722 mmHg 54%
    10:00 +28°C° 0 mm 5 m/s 722 mmHg 49%
    11:00 +28°C° 0,1 mm 5 m/s 722 mmHg 48%
    12:00 +29°C° 0,1 mm 5 m/s 722 mmHg 47%
    13:00 +29°C° 0,1 mm 5 m/s 721 mmHg 47%
    14:00 +29°C° 0,3 mm 5 m/s 721 mmHg 50%
    15:00 +28°C° 0,3 mm 4 m/s 721 mmHg 54%
    16:00 +28°C° 0,3 mm 4 m/s 721 mmHg 57%
    17:00 +27°C° 0,2 mm 4 m/s 721 mmHg 62%
    18:00 +26°C° 0,2 mm 3 m/s 721 mmHg 66%
    19:00 +25°C° 0,2 mm 2 m/s 721 mmHg 71%
    20:00 +24°C° 0,3 mm 2 m/s 721 mmHg 74%
    21:00 +21°C° 0,3 mm 2 m/s 722 mmHg 77%
    22:00 +20°C° 0,3 mm 2 m/s 722 mmHg 80%
    23:00 +20°C° 0,4 mm 2 m/s 722 mmHg 81%
    Arată mai mult